Hourly Data Report for October 27, 2000

SHERBROOKE A
QUEBEC

45°26'00.000" N
71°41'00.000" W
241.40 m
7028124
71610
YSC

Download Data

Hourly Data (October 2000)
Hourly Data Report for October 27, 2000
TIME
LST
Temp Definition
°C
Dew Point Definition
°C
Rel Hum Definition
%
Precip. Amount Definition
mm

Wind Dir Definition
10's deg

Wind Spd Definition
km/h
Visibility Definition
km
Stn Press Definition
kPa
Hmdx Definition


Wind Chill Definition


Weather Definition


00:00 6.1 6.1 100   7 4 2.1 99.22      
01:00 5.1 4.8 98   8 4 0.8 99.18      
02:00 7.7 7.5 99   8 4 3.7 99.15      
03:00 8.9 8.9 100   7 4 4.8 99.08      
04:00 9.1 9.0 99     0 3.9 99.05      
05:00 7.6 7.5 99     0 0.6 98.98      
06:00 6.7 6.5 99   7 4 0.5 98.92      
07:00 8.2 8.0 99   9 6 19.3 98.92     Cloudy
08:00 10.8 10.7 99     0 12.9 98.92     Cloudy
09:00 13.9 11.5 85   11 4 14.5 98.88     Cloudy
10:00 14.9 11.3 79   34 7 16.1 98.82     Cloudy
11:00 17.7 11.3 66   27 4 19.3 98.75     Mostly Cloudy
12:00 19.8 10.6 55   22 11 19.3 98.62     Mostly Cloudy
13:00 20.2 9.2 49   20 15 19.3 98.55     Mostly Cloudy
14:00 20.6 9.3 48   19 17 19.3 98.45     Mostly Cloudy
15:00 21.2 10.5 50   21 13 19.3 98.36     Mostly Cloudy
16:00 20.1 10.1 53   20 13 19.3 98.26     Mostly Cloudy
17:00 18.6 9.5 55   19 9 15.0 98.22      
18:00 17.3 8.1 55   18 7 15.0 98.19      
19:00 16.0 8.6 61   23 7 15.0 98.22      
20:00 16.1 8.3 60   20 7 15.0 98.22      
21:00 15.7 8.5 62   20 7 15.0 98.19      
22:00 15.8 9.2 65   23 7 15.0 98.09      
23:00 10.9 9.5 91   33 26 15.0 98.22      

Notes on Data Quality.

Legend

  • E = Estimated
  • M = Missing
  • NA = Not Available*
  • [empty] = Indicates an unobserved value
Date modified: